| time (UTC) | temp C | wind direction | speed KPH | gust KPH | rain 1hr cm | rain 24hr cm | rain mn cm | humidity % | barometer mb |
| 20260504181058 | 15 | 248 | 6.4 | 0.0 | 0.00 | 0.00 | 0.00 | 77 | 1014.6 |
| 20260504180559 | 15 | 231 | 6.4 | 0.0 | 0.00 | 0.00 | 0.00 | 78 | 1014.6 |
| 20260504180057 | 15 | 204 | 8.0 | 0.0 | 0.00 | 0.00 | 0.00 | 79 | 1014.6 |
| 20260504175556 | 14 | 269 | 9.7 | 0.0 | 0.00 | 0.00 | 0.00 | 77 | 1014.7 |
| 20260504175056 | 15 | 156 | 8.0 | 0.0 | 0.00 | 0.00 | 0.00 | 78 | 1014.7 |
| 20260504174555 | 15 | 192 | 4.8 | 0.0 | 0.00 | 0.00 | 0.00 | 79 | 1014.7 |
| 20260504174055 | 14 | 161 | 6.4 | 0.0 | 0.00 | 0.00 | 0.00 | 79 | 1014.6 |
| 20260504173554 | 14 | 217 | 6.4 | 0.0 | 0.00 | 0.00 | 0.00 | 79 | 1014.6 |
| 20260504173059 | 14 | 316 | 6.4 | 0.0 | 0.00 | 0.00 | 0.00 | 78 | 1014.6 |
| 20260504172554 | 14 | 277 | 6.4 | 0.0 | 0.00 | 0.00 | 0.00 | 77 | 1014.5 |
| 20260504172054 | 14 | 225 | 6.4 | 0.0 | 0.00 | 0.00 | 0.00 | 77 | 1014.5 |
| 20260504171557 | 14 | 210 | 6.4 | 0.0 | 0.00 | 0.00 | 0.00 | 77 | 1014.5 |
| 20260504171054 | 14 | 192 | 4.8 | 0.0 | 0.00 | 0.00 | 0.00 | 76 | 1014.3 |
| 20260504170553 | 14 | 225 | 4.8 | 0.0 | 0.00 | 0.00 | 0.00 | 75 | 1014.3 |
| 20260504151036 | 11 | 277 | 8.0 | 0.0 | 0.00 | 0.00 | 0.00 | 85 | 1013.7 |
| 20260504150536 | 11 | 319 | 9.7 | 0.0 | 0.00 | 0.00 | 0.00 | 85 | 1013.7 |
| 20260504141031 | 10 | 282 | 8.0 | 0.0 | 0.00 | 0.00 | 0.00 | 91 | 1013.5 |
| 20260504140634 | 10 | 311 | 8.0 | 0.0 | 0.00 | 0.00 | 0.00 | 91 | 1013.5 |
| 20260504130527 | 10 | 302 | 6.4 | 0.0 | 0.00 | 0.00 | 0.00 | 90 | 1013.2 |
| 20260504110518 | 11 | 237 | 4.8 | 0.0 | 0.00 | 0.00 | 0.00 | 90 | 1013.3 |
| 20260504100511 | 11 | 307 | 4.8 | 0.0 | 0.00 | 0.00 | 0.00 | 90 | 1013.0 |
| 20260504082003 | 11 | 270 | 1.6 | 0.0 | 0.00 | 0.00 | 0.00 | 90 | 1013.4 |
| 20260504081502 | 11 | 250 | 1.6 | 0.0 | 0.00 | 0.00 | 0.00 | 90 | 1013.4 |
| 20260504081002 | 11 | 250 | 1.6 | 0.0 | 0.00 | 0.00 | 0.00 | 90 | 1013.9 |
| 20260504080502 | 11 | 209 | 0.0 | 0.0 | 0.00 | 0.00 | 0.00 | 90 | 1013.9 |
| 20260504050550 | 11 | 177 | 1.6 | 0.0 | 0.00 | 0.00 | 0.00 | 89 | 1013.6 |
| 20260504045547 | 11 | 256 | 1.6 | 0.0 | 0.00 | 0.00 | 0.00 | 90 | 1013.6 |
| 20260504045048 | 11 | 188 | 1.6 | 0.0 | 0.00 | 0.00 | 0.00 | 90 | 1013.6 |
| 20260504044547 | 12 | 199 | 1.6 | 0.0 | 0.00 | 0.00 | 0.00 | 91 | 1013.6 |
| 20260504044047 | 12 | 167 | 1.6 | 0.0 | 0.00 | 0.00 | 0.00 | 90 | 1013.6 |
| 20260504043548 | 12 | 220 | 1.6 | 0.0 | 0.00 | 0.00 | 0.00 | 90 | 1013.6 |
| 20260504043055 | 12 | 160 | 1.6 | 0.0 | 0.00 | 0.00 | 0.00 | 90 | 1013.6 |
| 20260504042548 | 12 | 204 | 1.6 | 0.0 | 0.00 | 0.00 | 0.00 | 90 | 1013.5 |
| 20260504042046 | 12 | 213 | 1.6 | 0.0 | 0.00 | 0.00 | 0.00 | 90 | 1013.5 |
| 20260504041546 | 12 | 268 | 1.6 | 0.0 | 0.00 | 0.00 | 0.00 | 89 | 1013.5 |
| 20260504041046 | 12 | 183 | 1.6 | 0.0 | 0.00 | 0.00 | 0.00 | 89 | 1013.4 |
| 20260504040546 | 12 | 188 | 1.6 | 0.0 | 0.00 | 0.00 | 0.00 | 89 | 1013.4 |
| 20260504040046 | 12 | 183 | 3.2 | 0.0 | 0.00 | 0.00 | 0.00 | 88 | 1013.4 |
| 20260504035546 | 12 | 192 | 3.2 | 0.0 | 0.00 | 0.00 | 0.00 | 88 | 1013.1 |
| 20260504035046 | 12 | 173 | 3.2 | 0.0 | 0.00 | 0.00 | 0.00 | 88 | 1013.1 |
| 20260504034548 | 12 | 238 | 3.2 | 0.0 | 0.00 | 0.00 | 0.00 | 88 | 1013.1 |
| 20260504034045 | 12 | 198 | 3.2 | 0.0 | 0.00 | 0.00 | 0.00 | 88 | 1013.0 |
| 20260504033548 | 12 | 243 | 1.6 | 0.0 | 0.00 | 0.00 | 0.00 | 88 | 1013.0 |
| 20260504033045 | 12 | 203 | 1.6 | 0.0 | 0.00 | 0.00 | 0.00 | 88 | 1013.0 |
| 20260504032545 | 12 | 200 | 1.6 | 0.0 | 0.00 | 0.00 | 0.00 | 88 | 1012.6 |
| 20260504032048 | 12 | 229 | 1.6 | 0.0 | 0.00 | 0.00 | 0.00 | 88 | 1012.6 |
| 20260504031545 | 12 | 255 | 3.2 | 0.0 | 0.00 | 0.00 | 0.00 | 88 | 1012.6 |
| 20260504031044 | 12 | 238 | 4.8 | 0.0 | 0.00 | 0.00 | 0.00 | 88 | 1012.5 |
| 20260504030544 | 12 | 222 | 4.8 | 0.0 | 0.00 | 0.00 | 0.00 | 88 | 1012.5 |
| 20260504030045 | 12 | 208 | 3.2 | 0.0 | 0.00 | 0.00 | 0.00 | 88 | 1012.5 |
| 20260504025544 | 12 | 243 | 3.2 | 0.0 | 0.00 | 0.00 | 0.00 | 88 | 1012.5 |
| 20260504025044 | 12 | 191 | 3.2 | 0.0 | 0.00 | 0.00 | 0.00 | 88 | 1012.5 |
| 20260504024548 | 12 | 184 | 3.2 | 0.0 | 0.00 | 0.00 | 0.00 | 88 | 1012.5 |
| 20260504024046 | 12 | 185 | 3.2 | 0.0 | 0.00 | 0.00 | 0.00 | 87 | 1012.5 |
| 20260504023543 | 12 | 202 | 3.2 | 0.0 | 0.00 | 0.00 | 0.00 | 87 | 1012.5 |
| 20260504023044 | 12 | 186 | 4.8 | 0.0 | 0.00 | 0.00 | 0.00 | 87 | 1012.5 |
| 20260504022544 | 12 | 267 | 4.8 | 0.0 | 0.00 | 0.00 | 0.00 | 87 | 1012.4 |
| 20260504022043 | 12 | 221 | 4.8 | 0.0 | 0.00 | 0.00 | 0.00 | 86 | 1012.4 |
| 20260504021543 | 12 | 196 | 4.8 | 0.0 | 0.00 | 0.00 | 0.00 | 86 | 1012.4 |
| 20260504021042 | 12 | 229 | 4.8 | 0.0 | 0.00 | 0.00 | 0.00 | 86 | 1012.3 |
| 20260504020545 | 12 | 237 | 3.2 | 0.0 | 0.00 | 0.00 | 0.00 | 85 | 1012.3 |
| 20260504020122 | 12 | 212 | 3.2 | 0.0 | 0.00 | 0.00 | 0.00 | 85 | 1012.3 |
| 20260504015542 | 12 | 223 | 4.8 | 0.0 | 0.00 | 0.00 | 0.00 | 85 | 1012.1 |
| 20260504015044 | 12 | 202 | 4.8 | 0.0 | 0.00 | 0.00 | 0.00 | 85 | 1012.1 |
| 20260504014557 | 13 | 276 | 4.8 | 0.0 | 0.00 | 0.00 | 0.00 | 84 | 1012.1 |
| 20260504014041 | 13 | 215 | 3.2 | 0.0 | 0.00 | 0.00 | 0.00 | 84 | 1012.0 |
| 20260504013541 | 13 | 184 | 4.8 | 0.0 | 0.00 | 0.00 | 0.00 | 84 | 1012.0 |
| 20260504013053 | 13 | 188 | 4.8 | 0.0 | 0.00 | 0.00 | 0.00 | 83 | 1012.0 |
| 20260504012541 | 13 | 159 | 4.8 | 0.0 | 0.00 | 0.00 | 0.00 | 81 | 1012.0 |
| 20260504012042 | 13 | 204 | 6.4 | 0.0 | 0.00 | 0.00 | 0.00 | 80 | 1012.0 |
| 20260504011543 | 13 | 184 | 6.4 | 0.0 | 0.00 | 0.00 | 0.00 | 79 | 1012.0 |
| 20260504011041 | 13 | 191 | 4.8 | 0.0 | 0.00 | 0.00 | 0.00 | 79 | 1011.9 |
| 20260504010541 | 14 | 228 | 6.4 | 0.0 | 0.00 | 0.00 | 0.00 | 77 | 1011.9 |
| 20260504010044 | 14 | 205 | 4.8 | 0.0 | 0.00 | 0.00 | 0.00 | 76 | 1011.9 |
| 20260504005540 | 15 | 230 | 3.2 | 0.0 | 0.00 | 0.00 | 0.00 | 73 | 1011.8 |
| 20260504005040 | 15 | 187 | 4.8 | 0.0 | 0.00 | 0.00 | 0.00 | 72 | 1011.8 |
| 20260504004602 | 15 | 194 | 4.8 | 0.0 | 0.00 | 0.00 | 0.00 | 73 | 1011.8 |
| 20260504004040 | 15 | 185 | 4.8 | 0.0 | 0.00 | 0.00 | 0.00 | 73 | 1011.8 |
| 20260504003539 | 15 | 186 | 4.8 | 0.0 | 0.00 | 0.00 | 0.00 | 75 | 1011.8 |
| 20260504003048 | 15 | 205 | 4.8 | 0.0 | 0.00 | 0.00 | 0.00 | 75 | 1011.8 |
| 20260504002539 | 15 | 171 | 4.8 | 0.0 | 0.00 | 0.00 | 0.00 | 78 | 1011.8 |
| 20260504002039 | 14 | 259 | 4.8 | 0.0 | 0.00 | 0.00 | 0.00 | 80 | 1011.8 |
| 20260504001607 | 15 | 282 | 4.8 | 0.0 | 0.00 | 0.00 | 0.00 | 79 | 1011.8 |
| 20260504001039 | 14 | 212 | 4.8 | 0.0 | 0.00 | 0.00 | 0.00 | 80 | 1011.4 |
| 20260504000538 | 14 | 266 | 6.4 | 0.0 | 0.00 | 0.00 | 0.00 | 81 | 1011.4 |
| 20260504000044 | 14 | 279 | 4.8 | 0.0 | 0.00 | 0.00 | 0.00 | 81 | 1011.4 |
| 20260503235538 | 14 | 289 | 4.8 | 0.0 | 0.00 | 0.00 | 0.00 | 82 | 1011.3 |
| 20260503235039 | 14 | 214 | 4.8 | 0.0 | 0.00 | 0.00 | 0.00 | 83 | 1011.3 |
| 20260503234538 | 14 | 286 | 4.8 | 0.0 | 0.00 | 0.00 | 0.00 | 83 | 1011.3 |
| 20260503234039 | 14 | 206 | 4.8 | 0.0 | 0.00 | 0.00 | 0.00 | 83 | 1011.3 |
| 20260503233538 | 14 | 207 | 4.8 | 0.0 | 0.00 | 0.00 | 0.00 | 83 | 1011.3 |
| 20260503233042 | 14 | 234 | 3.2 | 0.0 | 0.00 | 0.00 | 0.00 | 84 | 1011.3 |
| 20260503232538 | 14 | 242 | 3.2 | 0.0 | 0.00 | 0.00 | 0.00 | 86 | 1011.8 |
| 20260503232038 | 14 | 201 | 4.8 | 0.0 | 0.00 | 0.00 | 0.00 | 86 | 1011.8 |
| 20260503231538 | 14 | 178 | 3.2 | 0.0 | 0.00 | 0.00 | 0.00 | 85 | 1011.8 |
| 20260503231038 | 14 | 291 | 3.2 | 0.0 | 0.00 | 0.00 | 0.00 | 85 | 1011.9 |
| 20260503230537 | 14 | 251 | 3.2 | 0.0 | 0.00 | 0.00 | 0.00 | 86 | 1011.9 |
| 20260503230045 | 14 | 169 | 3.2 | 0.0 | 0.00 | 0.00 | 0.00 | 86 | 1011.9 |
| 20260503225536 | 14 | 229 | 4.8 | 0.0 | 0.00 | 0.00 | 0.00 | 85 | 1011.9 |
| 20260503225036 | 14 | 261 | 4.8 | 0.0 | 0.00 | 0.00 | 0.00 | 84 | 1011.9 |
| 20260503224536 | 14 | 264 | 4.8 | 0.0 | 0.00 | 0.00 | 0.00 | 82 | 1011.9 |
| 20260503224036 | 14 | 171 | 4.8 | 0.0 | 0.00 | 0.00 | 0.00 | 82 | 1012.1 |
| 20260503223535 | 14 | 161 | 6.4 | 0.0 | 0.00 | 0.00 | 0.00 | 81 | 1012.1 |
| 20260503223036 | 14 | 160 | 6.4 | 0.0 | 0.00 | 0.00 | 0.00 | 80 | 1012.1 |
| 20260503222535 | 14 | 207 | 6.4 | 0.0 | 0.00 | 0.00 | 0.00 | 80 | 1012.2 |
| 20260503222036 | 14 | 146 | 4.8 | 0.0 | 0.00 | 0.00 | 0.00 | 80 | 1012.2 |
| 20260503221535 | 14 | 163 | 6.4 | 0.0 | 0.00 | 0.00 | 0.00 | 80 | 1012.2 |
| 20260503221035 | 14 | 205 | 6.4 | 0.0 | 0.00 | 0.00 | 0.00 | 80 | 1012.3 |
| 20260503220535 | 15 | 199 | 6.4 | 0.0 | 0.00 | 0.00 | 0.00 | 79 | 1012.3 |
| 20260503220043 | 15 | 164 | 6.4 | 0.0 | 0.00 | 0.00 | 0.00 | 79 | 1012.3 |
| 20260503215535 | 15 | 144 | 6.4 | 0.0 | 0.00 | 0.00 | 0.00 | 77 | 1012.4 |
| 20260503215035 | 15 | 201 | 4.8 | 0.0 | 0.00 | 0.00 | 0.00 | 76 | 1012.4 |
| 20260503214534 | 15 | 142 | 4.8 | 0.0 | 0.00 | 0.00 | 0.00 | 76 | 1012.4 |
| 20260503214040 | 15 | 188 | 4.8 | 0.0 | 0.00 | 0.00 | 0.00 | 77 | 1012.4 |
| 20260503213536 | 15 | 149 | 4.8 | 0.0 | 0.00 | 0.00 | 0.00 | 77 | 1012.4 |
| 20260503213034 | 15 | 209 | 4.8 | 0.0 | 0.00 | 0.00 | 0.00 | 77 | 1012.4 |
| 20260503212536 | 15 | 182 | 4.8 | 0.0 | 0.00 | 0.00 | 0.00 | 76 | 1012.4 |
| 20260503212035 | 15 | 175 | 4.8 | 0.0 | 0.00 | 0.00 | 0.00 | 76 | 1012.4 |
| 20260503211535 | 15 | 163 | 4.8 | 0.0 | 0.00 | 0.00 | 0.00 | 75 | 1012.4 |
| 20260503211033 | 15 | 198 | 4.8 | 0.0 | 0.00 | 0.00 | 0.00 | 74 | 1012.5 |
| 20260503210533 | 15 | 360 | 4.8 | 0.0 | 0.00 | 0.00 | 0.00 | 74 | 1012.5 |
| 20260503210034 | 15 | 189 | 8.0 | 0.0 | 0.00 | 0.00 | 0.00 | 75 | 1012.5 |
| 20260503205535 | 15 | 196 | 8.0 | 0.0 | 0.00 | 0.00 | 0.00 | 71 | 1012.4 |
| 20260503205033 | 15 | 173 | 6.4 | 0.0 | 0.00 | 0.00 | 0.00 | 74 | 1012.4 |
| 20260503204532 | 15 | 196 | 8.0 | 0.0 | 0.00 | 0.00 | 0.00 | 74 | 1012.4 |
| 20260503204032 | 15 | 226 | 9.7 | 0.0 | 0.00 | 0.00 | 0.00 | 72 | 1012.4 |
| 20260503203533 | 15 | 215 | 8.0 | 0.0 | 0.00 | 0.00 | 0.00 | 71 | 1012.4 |
| 20260503203046 | 15 | 175 | 6.4 | 0.0 | 0.00 | 0.00 | 0.00 | 69 | 1012.4 |
| 20260503202537 | 16 | 214 | 4.8 | 0.0 | 0.00 | 0.00 | 0.00 | 67 | 1012.4 |
| 20260503202034 | 16 | 203 | 6.4 | 0.0 | 0.00 | 0.00 | 0.00 | 67 | 1012.4 |
| 20260503201534 | 16 | 197 | 6.4 | 0.0 | 0.00 | 0.00 | 0.00 | 65 | 1012.4 |
| 20260503201032 | 16 | 157 | 6.4 | 0.0 | 0.00 | 0.00 | 0.00 | 67 | 1012.7 |
| 20260503200532 | 16 | 213 | 4.8 | 0.0 | 0.00 | 0.00 | 0.00 | 65 | 1012.7 |
| 20260503200032 | 16 | 173 | 4.8 | 0.0 | 0.00 | 0.00 | 0.00 | 66 | 1012.7 |
| 20260503195530 | 16 | 228 | 6.4 | 0.0 | 0.00 | 0.00 | 0.00 | 67 | 1012.8 |
| 20260503195031 | 16 | 136 | 6.4 | 0.0 | 0.00 | 0.00 | 0.00 | 65 | 1012.8 |
| 20260503194539 | 16 | 162 | 4.8 | 0.0 | 0.00 | 0.00 | 0.00 | 66 | 1012.8 |
| 20260503194029 | 16 | 182 | 6.4 | 0.0 | 0.00 | 0.00 | 0.00 | 68 | 1012.9 |
| 20260503193530 | 15 | 213 | 6.4 | 0.0 | 0.00 | 0.00 | 0.00 | 67 | 1012.9 |
| 20260503193027 | 15 | 164 | 4.8 | 0.0 | 0.00 | 0.00 | 0.00 | 67 | 1012.9 |
| 20260503192525 | 15 | 184 | 4.8 | 0.0 | 0.00 | 0.00 | 0.00 | 70 | 1012.9 |
| 20260503192025 | 15 | 182 | 6.4 | 0.0 | 0.00 | 0.00 | 0.00 | 71 | 1012.9 |
| 20260503191524 | 15 | 360 | 6.4 | 0.0 | 0.00 | 0.00 | 0.00 | 74 | 1012.9 |
| 20260503191024 | 15 | 169 | 8.0 | 0.0 | 0.00 | 0.00 | 0.00 | 75 | 1013.1 |
| 20260503190524 | 15 | 198 | 6.4 | 0.0 | 0.00 | 0.00 | 0.00 | 73 | 1013.1 |
| 20260503190035 | 15 | 172 | 6.4 | 0.0 | 0.00 | 0.00 | 0.00 | 74 | 1013.1 |
| 20260503185524 | 15 | 207 | 6.4 | 0.0 | 0.00 | 0.00 | 0.00 | 74 | 1013.2 |
| 20260503185022 | 15 | 196 | 6.4 | 0.0 | 0.00 | 0.00 | 0.00 | 73 | 1013.2 |
| 20260503184524 | 15 | 182 | 4.8 | 0.0 | 0.00 | 0.00 | 0.00 | 75 | 1013.2 |
| 20260503184022 | 15 | 123 | 4.8 | 0.0 | 0.00 | 0.00 | 0.00 | 75 | 1013.4 |
| 20260503183521 | 15 | 188 | 6.4 | 0.0 | 0.00 | 0.00 | 0.00 | 76 | 1013.4 |
| 20260503183021 | 15 | 180 | 6.4 | 0.0 | 0.00 | 0.00 | 0.00 | 74 | 1013.4 |
| 20260503182520 | 15 | 171 | 4.8 | 0.0 | 0.00 | 0.00 | 0.00 | 74 | 1013.4 |
| 20260503182020 | 14 | 223 | 4.8 | 0.0 | 0.00 | 0.00 | 0.00 | 75 | 1013.4 |
| 20260503181519 | 14 | 253 | 4.8 | 0.0 | 0.00 | 0.00 | 0.00 | 76 | 1013.4 |